Santiago, Chile

6:56 PM -03 on February 25, 2018 (GMT -0300)
Arturo Merino Benitez International

Weather History for SCEL - February, 2018

Change the Weather History Date:

Thursday, February 15, 2018

  Actual Average Record
Temperature  
Mean Temperature 72 °F -  
Max Temperature 87 °F 80 °F 93 °F (2016)
Min Temperature 56 °F 50 °F 50 °F (2003)
Cooling Degree Days 6    
Growing Degree Days 22 (Base 50)    
Moisture  
Dew Point 54 °F    
Average Humidity 56    
Maximum Humidity 82    
Minimum Humidity 25    
Precipitation  
Precipitation 0.00 in - - ()
Sea Level Pressure  
Sea Level Pressure 29.93 in    
Wind  
Wind Speed 8 mph ()    
Max Wind Speed 18 mph    
Max Gust Speed -    
Visibility 5.7 miles    
Events      
Averages and records for this station are not official NWS values.
T = Trace of Precipitation, MM = Missing Value Source: Averaged Metar Reports

Daily Weather History Graph

Daily Weather History Graph

Search for Another Location

Airport or City:

Trip Planner

Search our weather history database for the weather conditions in past years. The results will help you decide how hot, cold, wet, or windy it might be!

Date:

Astronomy

Feb. 15, 2018 Rise Set
Actual Time 7:19 AM -03 8:34 PM -03
Civil Twilight 6:53 AM -03 9:00 PM -03
Nautical Twilight 6:22 AM -03 9:31 PM -03
Astronomical Twilight 5:50 AM -03 10:03 PM -03
Moon 6:58 AM -03 (2/15) 8:38 PM -03 (2/15)
Length of Visible Light 14h 07m
Length of Day
13h 15m
Waning Crescent, 0% of the Moon is Illuminated
Feb 15
Waning Crescent
Feb 15
New
Feb 23
First Quarter
Mar 1
Full
Mar 9
Last Quarter

Hourly Weather History & Observations

Time (-03) Temp. Heat Index Dew Point Humidity Pressure Visibility Wind Dir Wind Speed Gust Speed Precip Events Conditions
12:00 AM 66.2 °F - 55.4 °F 68% 29.92 in - SSE 8.1 mph - N/A   Clear
1:00 AM 64.4 °F - 53.6 °F 68% 29.92 in - SSE 10.4 mph - N/A   Clear
2:00 AM 62.6 °F - 53.6 °F 72% 29.92 in - SSE 8.1 mph - N/A   Clear
3:00 AM 62 °F - 53 °F 65% 29.91 in 6 mi SSE 8.1 mph - -   Partly Cloudy
3:00 AM 62.6 °F - 53.6 °F 72% 29.92 in - SSE 8.1 mph - N/A   Clear
4:00 AM 60.8 °F - 51.8 °F 72% 29.92 in - South 6.9 mph - N/A   Clear
5:00 AM 59.0 °F - 51.8 °F 77% 29.92 in - SSE 5.8 mph - N/A   Clear
6:00 AM 59.0 °F - 51.8 °F 77% 29.92 in - SSE 5.8 mph - N/A   Clear
7:00 AM 57.2 °F - 51.8 °F 82% 29.95 in 5.0 mi Variable 2.3 mph - N/A   Unknown
8:00 AM 59.0 °F - 51.8 °F 77% 29.95 in 5.0 mi South 3.5 mph - N/A   Unknown
9:00 AM 61 °F - 53 °F 68% 29.97 in 6 mi SSE 6.9 mph - -   Partly Cloudy
9:00 AM 60.8 °F - 53.6 °F 77% 29.98 in - SSE 6.9 mph - N/A   Clear
10:00 AM 64.4 °F - 53.6 °F 68% 29.98 in - SSE 6.9 mph - N/A   Clear
11:00 AM 69.8 °F - 53.6 °F 56% 29.98 in - SSW 4.6 mph - N/A   Clear
12:00 PM 75.2 °F - 55.4 °F 50% 29.98 in - Variable 3.5 mph - N/A   Clear
1:00 PM 78.8 °F - 55.4 °F 44% 29.95 in - South 5.8 mph - N/A   Clear
2:00 PM 82.4 °F 81.7 °F 55.4 °F 39% 29.95 in - South 9.2 mph - N/A   Clear
3:00 PM 85 °F - 55 °F 25% 29.84 in 6 mi South 13.8 mph - -   Partly Cloudy
3:00 PM 86.0 °F 84.5 °F 55.4 °F 35% 29.92 in - South 13.8 mph - N/A   Clear
4:00 PM 86.0 °F 84.2 °F 53.6 °F 33% 29.92 in - SSW 15.0 mph - N/A   Clear
5:00 PM 86.0 °F 84.2 °F 53.6 °F 33% 29.92 in - SW 18.4 mph - N/A   Clear
6:00 PM 84.2 °F 82.8 °F 53.6 °F 35% 29.92 in - SSW 17.3 mph - N/A   Clear
7:00 PM 84.2 °F 82.8 °F 53.6 °F 35% 29.89 in - SSW 15.0 mph - N/A   Clear
8:00 PM 78.8 °F - 55.4 °F 44% 29.92 in - SSW 15.0 mph - N/A   Clear
9:00 PM 75 °F - 55 °F 39% 29.88 in 6 mi SSE 9.2 mph - -   Partly Cloudy
9:00 PM 75.2 °F - 55.4 °F 50% 29.92 in - SSE 9.2 mph - N/A   Clear
10:00 PM 71.6 °F - 55.4 °F 57% 29.95 in - SSE 11.5 mph - N/A   Clear
11:00 PM 68.0 °F - 55.4 °F 64% 29.95 in - SE 9.2 mph - N/A   Clear